Location: Gniazdowice
(50.2124°N, 20.2673°E)
Time: 21:30:57
(UTC+00:00)

Cosmos 1300 Rocket - Pass Details

Date: 23 May 2024
Orbit: 597 x 623 km, 82.5° (Epoch: 22 June)

Event Time Altitude Azimuth Distance (km) Brightness Sun altitude
Rises 01:10:46 0° 343° (NNW) 2,877 7.5 -11.3°
Reaches altitude 10° 01:13:06 10° 336° (NNW) 1,964 6.5 -11.1°
Maximum altitude 01:17:07 39° 268° (W) 917 4.1 -10.7°
Enters shadow 01:20:33 13° 203° (SSW) 1,730 5.2 -10.3°
